Regional Weather Roundup
Issued by NWS

Home | Current Version | Previous Version | Graphics & Text | Print | Product List | Glossary On
Versions: 1 2 3 4 5 6 7 8 9 10 11 12 13 14 15 16 17 18 19 20 21 22 23 24 25 26 27 28 29 30 31 32 33 34 35 36 37 38 39 40 41 42 43 44 45 46 47 48 49 50
000
ASUS43 KTOP 241808
RWRKS

WEATHER ROUNDUP FOR KANSAS
NATIONAL WEATHER SERVICE GOODLAND KS
100 PM CDT FRI MAR 24 2017

NOTE:  "FAIR" INDICATES FEW OR NO CLOUDS BELOW 12,000 FEET WITH NO
SIGNIFICANT WEATHER AND/OR OBSTRUCTIONS TO VISIBILITY.

KSZ001>006-013>018-027>032-041>047-241900-
NORTHWEST KANSAS

CITY           SKY/WX    TMP DP  RH WIND       PRES   REMARKS
GOODLAND       LGT RAIN  41  40  96 N26G32    29.92R
6HR MIN TEMP:  40; 6HR MAX TEMP:  49; 6HR PCP:  0.60;

HAYS             N/A     68  32  26 SE8       29.78R
HILL CITY      CLOUDY    45  43  93 NE24G33   29.88R
6HR MIN TEMP:  45; 6HR MAX TEMP:  57;

RUSSELL        SUNNY     70  30  22 SW8G17    29.77R
6HR MIN TEMP:  59; 6HR MAX TEMP:  72;

$$

KSZ061>065-074>080-084>089-241900-
SOUTHWEST KANSAS

CITY           SKY/WX    TMP DP  RH WIND       PRES   REMARKS
DODGE CITY     SUNNY     65  32  29 SE14G24   29.72S
6HR MIN TEMP:  43; 6HR MAX TEMP:  65;

ELKHART          N/A     52  30  43 N20         N/A
GARDEN CITY    SUNNY     61  33  35 NE6G20    29.74R
6HR MIN TEMP:  42; 6HR MAX TEMP:  62;

LIBERAL        CLOUDY    55  30  38 E10       29.71R
PRATT          SUNNY     66  27  23 S15G26    29.74S
$$

KSZ066>073-081>083-090>101-241900-
SOUTHEAST KANSAS

CITY           SKY/WX    TMP DP  RH WIND       PRES   REMARKS
CHANUTE        CLOUDY    67  55  65 S24G32    29.85S
6HR MIN TEMP:  63; 6HR MAX TEMP:  70; 6HR PCP: TRACE;

COFFEYVILLE    CLOUDY    67  57  70 S22G36    29.85R
6HR MIN TEMP:  66; 6HR MAX TEMP:  70;

HUTCHINSON     SUNNY     75  36  24 S16G26    29.75F
6HR MIN TEMP:  63; 6HR MAX TEMP:  75;

MEDICINE LODGE   N/A     70  27  20 S22G31    29.71F
NEWTON         MOSUNNY   72  47  40 SW18      29.77F
PARSONS        CLOUDY    67  56  67 S16G28    29.86R
6HR MIN TEMP:  66; 6HR MAX TEMP:  70;

WICHITA INTL   MOSUNNY   74  40  29 S17       29.75F
6HR MIN TEMP:  63; 6HR MAX TEMP:  75;

WICHITA JABRA  MOSUNNY   73  41  31 S17       29.77S
6HR MIN TEMP:  63; 6HR MAX TEMP:  73;

WICHITA MCCONL MOSUNNY   72  42  33 S13G20    29.76S
WINFIELD       HVY RAIN  58  54  86 SE9G20    29.79R FOG
6HR MIN TEMP:  58; 6HR MAX TEMP:  70; 6HR PCP:  0.34;

$$

KSZ007>012-019>026-033>040-048>060-102>105-241900-
NORTHEAST KANSAS

CITY           SKY/WX    TMP DP  RH WIND       PRES   REMARKS
CONCORDIA      CLOUDY    60  53  77 N21G28    29.83R
6HR MIN TEMP:  60; 6HR MAX TEMP:  69;

EMPORIA        CLOUDY    69  55  60 S18       29.80S
6HR MIN TEMP:  65; 6HR MAX TEMP:  72;

LAWRENCE       CLOUDY    67  57  70 S10       29.84F
6HR MIN TEMP:  64; 6HR MAX TEMP:  68; 6HR PCP:  0.04;

MANHATTAN      CLOUDY    71  51  49 SW8       29.79S
6HR MIN TEMP:  66; 6HR MAX TEMP:  73;

MARYSVILLE     CLOUDY    72  52  49 CALM      29.81F
OLATHE IND     CLOUDY    67  55  65 S17G26    29.86S
6HR MIN TEMP:  61; 6HR MAX TEMP:  69; 6HR PCP:  0.13;

OLATHE EXE     CLOUDY    67  55  65 S15G24    29.85F
6HR MIN TEMP:  62; 6HR MAX TEMP:  67; 6HR PCP:  0.06;

SALINA         SUNNY     75  39  27 S15       29.77S
6HR MIN TEMP:  67; 6HR MAX TEMP:  76;

TOPEKA BILLARD PTSUNNY   68  55  63 S14       29.82F
6HR MIN TEMP:  63; 6HR MAX TEMP:  69; 6HR PCP:  0.04;

TOPEKA FORBES  CLOUDY    70  54  56 S15       29.82F
6HR MIN TEMP:  64; 6HR MAX TEMP:  70; 6HR PCP:  0.05;

$$



USA.gov is the U.S. government's official web portal to all federal, state and local government web resources and services.